Location: Bushey
(51.6333°N, 0.3667°W)
Time: 14:42:25
(UTC+00:00)

Gbstr 26 Del rocket - Pass Details

Date: 03 March 2021
Orbit: 492 x 1264 km, 51.8° (Epoch: 13 April)

Event Time Altitude Azimuth Distance (km) Brightness Sun altitude
Rises 19:52:50 0° 273° (W) 2,859 7.9 -20.4°
Reaches altitude 10° 19:54:55 10° 274° (W) 2,041 6.8 -20.7°
Maximum altitude 19:59:37 88° 5° (N) 749 3.3 -21.4°
Enters shadow 20:01:10 48° 93° (E) 1,009 3.7 -21.6°
